Temp
51 52 52 52 52 51 45 34 27 45 41 29 25 24 32 40 36 38 34 32 30 27 27 25 24 24 28 36 33 26 28 26 21 25 32 34 35 34 34 24 25 30 27 27
51 51 51 52 52 52 39 33 29 41 40 18 20 31 33 35 34 34 34 32 32 31 27 23 29 31 37 34 32 29 30 25 19 26 29 33 28 32 35 36 33 29 23 27
51 51 51 52 52 51 38 31 21 29 31 29 28 28 29 30 36 34 34 32 32 29 28 30 26 27 32 35 34 37 32 26 22 17 21 26 23 26 30 33 26 27 25 26
51 51 52 52 52 51 41 29 23 28 18 26 28 30 30 29 28 33 34 31 29 25 26 28 28 29 32 35 34 32 27 23 26 25 28 27 25 24 26 23 25 21 22 24
51 51 51 51 51 50 34 25 27 29 26 30 28 29 28 28 29 30 28 27 31 26 25 28 26 29 29 28 33 29 31 24 27 25 29 31 24 25 27 25 24 25 27 25
51 51 51 51 50 47 33 30 32 31 29 28 26 26 29 30 31 33 34 31 27 27 31 33 35 35 34 31 29 28 28 25 26 21 27 30 21 23 24 23 25 24 20 25
50 51 51 51 50 45 37 31 32 27 25 28 28 31 31 30 31 28 33 32 26 34 37 36 36 35 36 35 35 34 28 28 22 15 22 11 23 29 29 25 24 27 27 27
50 50 50 51 50 49 38 34 33 27 23 29 32 31 30 31 31 30 31 34 37 37 32 28 25 24 27 30 33 33 32 26 17 12 16 21 26 26 25 24 22 27 27 27
49 49 50 50 50 49 37 34 33 31 24 29 33 30 31 25 25 28 32 36 36 34 28 25 15 16 23 20 27 34 33 32 20 16 12 11 21 28 34 32 20 28 29 27
49 49 50 50 50 50 40 35 35 33 25 33 33 29 27 31 27 24 27 31 30 32 23 18 18 18 25 19 18 20 24 23 19 21 17 20 27 32 39 17 17 30 30 29
49 49 49 50 50 50 42 36 36 36 27 33 36 37 31 31 28 22 29 27 28 25 21 18 16 19 18 18 22 20 20 17 19 20 15 12 33 32 22 26 31 33 32 32
48 49 49 49 49 49 46 37 38 38 33 35 36 38 39 38 35 29 29 28 27 21 19 20 20 19 19 22 14 28 19 23 20 20 20 29 33 31 33 33 32 33 33 34
48 48 49 49 49 49 45 35 33 35 29 36 36 37 43 44 39 38 30 30 32 29 27 20 21 19 18 12 17 22 26 30 20 20 25 25 29 34 34 35 33 36 36 35
48 48 49 49 49 48 45 36 33 33 30 26 34 43 42 45 42 41 38 37 34 31 29 23 21 22 27 19 22 20 23 27 25 24 28 31 32 32 33 35 35 35 37 36
48 48 49 49 48 46 39 35 34 35 33 27 31 39 43 43 42 41 39 37 32 28 25 23 22 26 26 26 26 21 24 22 18 15 29 27 28 33 35 34 33 34 33 34
47 48 48 48 47 45 35 30 36 37 34 29 25 35 38 41 41 39 37 34 29 27 22 21 26 31 27 22 20 30 31 32 32 30 33 33 34 34 35 34 34 35 34 34
47 48 48 47 46 37 29 31 36 42 35 29 26 30 37 38 37 34 34 32 29 29 25 25 26 28 27 21 19 31 33 34 34 35 34 34 34 32 36 36 36 37 34 34
47 47 47 47 47 43 33 36 43 38 32 29 23 26 31 37 30 30 29 29 29 28 26 26 26 28 26 20 31 33 34 35 36 37 35 34 35 36 36 36 35 34 33 32
47 47 46 39 34 29 33 45 41 34 33 24 25 24 18 33 29 29 30 28 24 29 22 26 27 25 20 31 32 31 34 34 36 35 35 36 34 35 36 36 35 33 33 32
45 39 29 22 29 44 42 30 22 23 23 30 25 26 25 30 27 26 25 24 22 20 25 27 23 22 32 34 36 37 37 38 38 34 33 34 34 34 34 35 35 35 34 33
31 25 26 35 44 34 25 17 20 20 23 25 27 28 28 31 26 24 24 20 24 20 25 24 20 24 30 36 36 37 38 38 39 37 36 36 36 36 35 35 36 35 34 33
36 36 37 34 28 23 22 18 24 25 27 28 27 29 30 29 29 26 25 26 26 25 27 21 18 26 34 35 37 38 38 39 39 39 38 38 39 38 36 36 35 35 34 35
36 33 30 27 22 19 22 13 23 21 27 28 28 27 29 28 29 25 25 26 22 26 15 20 24 29 35 35 37 38 38 38 37 39 38 37 36 37 36 36 35 35 34 34
28 27 22 24 18 24 27 27 28 31 30 28 29 26 25 25 26 25 26 28 26 17 16 22 22 32 35 35 36 38 37 38 38 38 38 37 38 37 36 35 34 31 33 34
29 30 22 25 31 30 30 30 30 30 30 30 29 28 27 25 26 26 27 22 18 23 20 26 30 34 35 35 35 36 36 36 37 37 37 37 37 36 36 36 35 34 33 32
29 30 28 29 29 27 27 28 29 31 30 31 31 26 22 25 27 26 22 25 22 25 26 28 31 34 35 36 36 36 37 37 36 36 37 37 37 36 37 36 34 30 29 25
30 28 30 31 30 27 30 30 31 31 31 29 26 24 27 25 22 25 26 24 28 28 28 30 32 35 37 36 36 37 37 36 36 36 36 37 38 37 36 35 35 33 33 28
MSLP
1021.66 1021.17 1020.74 1020.29 1019.87 1019.71 1019.77 1021.69 1022.80 1021.28 1020.34 1021.85 1024.03 1024.96 1024.69 1024.17 1023.89 1023.68 1023.83 1023.95 1024.02 1023.98 1023.76 1023.39 1022.92 1022.34 1021.54 1020.70 1020.25 1019.81 1019.49 1018.26 1016.09 1014.58 1013.99 1013.63 1012.96 1013.10 1013.09 1012.63 1012.74 1012.71 1013.63 1014.37
1021.68 1021.17 1020.77 1020.19 1019.79 1019.78 1020.76 1023.11 1023.51 1022.13 1021.67 1024.49 1025.57 1025.26 1024.99 1024.53 1024.31 1024.12 1023.99 1024.12 1024.26 1024.06 1023.84 1023.83 1022.69 1022.02 1020.90 1020.78 1020.49 1020.26 1019.85 1018.41 1016.58 1014.26 1014.63 1014.80 1015.18 1014.12 1013.59 1012.99 1013.18 1013.98 1015.00 1015.02
1021.75 1021.38 1020.73 1020.15 1019.88 1019.99 1021.11 1023.93 1024.97 1024.88 1025.28 1026.37 1026.10 1025.97 1025.73 1025.09 1024.57 1024.41 1024.37 1024.24 1024.12 1024.15 1023.79 1023.58 1022.86 1022.25 1021.34 1020.86 1020.60 1020.44 1020.38 1019.77 1018.94 1018.42 1018.34 1017.23 1017.02 1015.50 1015.69 1014.89 1015.64 1016.10 1017.10 1016.79
1022.06 1021.47 1020.77 1020.21 1020.09 1020.18 1021.28 1024.81 1026.80 1027.04 1027.59 1027.17 1026.88 1026.31 1026.26 1025.79 1025.29 1024.81 1024.60 1024.31 1024.37 1024.46 1023.84 1023.43 1022.99 1022.38 1021.38 1020.82 1020.85 1020.72 1020.65 1020.09 1019.46 1019.28 1019.09 1017.20 1018.18 1018.30 1018.32 1018.60 1019.08 1019.06 1019.05 1018.37
1022.35 1021.65 1021.03 1020.57 1020.41 1020.40 1022.59 1025.15 1026.43 1027.41 1027.81 1027.54 1027.16 1026.96 1026.81 1026.50 1025.94 1025.56 1025.08 1024.97 1024.14 1024.00 1023.96 1023.85 1023.39 1022.83 1022.20 1022.24 1021.15 1020.93 1020.77 1020.38 1019.78 1019.34 1018.93 1018.71 1019.34 1020.42 1020.69 1020.72 1020.95 1020.63 1020.10 1019.37
1022.70 1021.99 1021.35 1020.91 1020.61 1020.66 1023.34 1025.31 1025.97 1026.65 1028.40 1028.09 1027.75 1027.86 1027.34 1026.69 1026.44 1025.28 1024.92 1024.65 1024.24 1023.67 1023.38 1023.18 1022.92 1022.77 1022.94 1022.86 1021.93 1021.15 1020.75 1020.52 1020.28 1020.45 1019.88 1019.03 1019.34 1022.58 1022.95 1023.61 1023.31 1022.95 1021.87 1021.79
1023.23 1022.63 1022.10 1021.53 1021.16 1021.14 1022.93 1025.03 1025.89 1027.44 1028.96 1028.19 1028.20 1027.67 1027.27 1026.76 1026.36 1026.02 1024.78 1024.30 1024.00 1023.12 1022.90 1022.72 1022.67 1022.69 1022.70 1022.49 1021.73 1021.18 1020.78 1020.72 1021.18 1021.50 1020.85 1022.01 1024.75 1024.38 1023.93 1024.02 1024.45 1023.74 1023.12 1022.07
1023.85 1023.31 1022.91 1022.53 1022.37 1022.15 1023.34 1024.93 1025.88 1027.36 1028.77 1028.58 1027.95 1027.51 1027.17 1026.49 1026.10 1025.88 1025.22 1024.13 1023.64 1023.03 1023.06 1023.30 1023.65 1023.60 1023.40 1023.07 1022.25 1021.30 1021.00 1021.30 1022.38 1023.10 1023.59 1024.76 1024.49 1024.62 1024.56 1024.54 1025.05 1024.53 1023.72 1022.64
1024.37 1023.95 1023.56 1023.31 1023.23 1023.14 1024.03 1025.45 1025.84 1026.87 1028.07 1028.62 1028.19 1027.77 1027.39 1027.37 1026.94 1026.03 1025.20 1024.19 1023.67 1023.26 1024.10 1024.72 1025.90 1026.40 1026.06 1024.97 1023.29 1022.58 1022.16 1022.05 1023.01 1024.15 1025.22 1026.86 1027.48 1025.80 1023.99 1024.04 1025.00 1024.90 1024.37 1023.44
1024.86 1024.59 1024.23 1024.07 1023.88 1023.82 1024.41 1026.00 1026.09 1026.53 1027.87 1028.19 1027.96 1027.79 1027.82 1027.42 1027.44 1027.37 1026.42 1025.90 1025.09 1024.83 1026.16 1026.95 1027.63 1028.27 1027.96 1027.58 1026.94 1025.82 1024.67 1024.59 1025.19 1025.86 1026.74 1028.88 1028.45 1026.74 1024.63 1024.71 1028.33 1026.41 1025.55 1024.37
1025.44 1025.18 1024.90 1024.64 1024.41 1024.26 1024.76 1026.51 1026.46 1026.54 1027.59 1027.94 1027.68 1027.47 1027.43 1027.25 1027.46 1027.81 1026.70 1026.89 1026.78 1026.99 1028.10 1028.99 1029.60 1029.82 1029.75 1029.41 1029.08 1028.45 1027.62 1027.32 1027.28 1027.41 1028.21 1029.72 1029.11 1027.97 1026.89 1028.80 1028.04 1027.37 1026.60 1025.79
1026.00 1025.79 1025.62 1025.30 1025.10 1024.93 1024.99 1026.63 1026.91 1026.93 1027.49 1028.13 1027.71 1027.22 1027.01 1027.13 1027.18 1027.62 1027.64 1028.39 1028.59 1029.13 1029.45 1030.23 1030.40 1031.13 1030.98 1030.56 1030.35 1029.40 1029.44 1029.86 1029.63 1029.65 1031.13 1031.13 1030.47 1029.80 1029.24 1028.92 1028.33 1027.64 1026.93 1026.18
1026.43 1026.29 1026.15 1025.81 1025.71 1025.45 1025.65 1027.09 1027.90 1027.64 1028.60 1028.50 1028.04 1027.59 1027.06 1026.61 1026.89 1027.05 1027.80 1028.10 1028.42 1028.87 1029.34 1030.18 1031.11 1031.69 1031.92 1031.87 1031.58 1031.07 1030.72 1030.37 1030.66 1031.12 1031.44 1031.24 1030.66 1030.12 1029.66 1028.99 1028.45 1027.84 1027.17 1026.42
1026.87 1026.77 1026.62 1026.38 1026.27 1026.06 1026.22 1027.77 1028.64 1028.72 1029.51 1029.92 1029.33 1028.06 1027.89 1027.42 1026.98 1027.06 1027.42 1028.09 1028.59 1029.03 1029.40 1030.73 1031.75 1031.97 1031.88 1032.40 1032.27 1031.68 1031.71 1031.11 1031.37 1031.60 1031.42 1031.04 1030.65 1030.33 1030.06 1029.62 1028.95 1028.23 1027.55 1027.08
1027.22 1027.21 1027.14 1027.10 1027.11 1027.12 1027.30 1028.12 1029.00 1028.95 1029.67 1030.57 1030.07 1029.06 1028.44 1028.12 1027.74 1027.96 1028.05 1028.55 1029.45 1030.42 1031.02 1031.93 1032.62 1032.51 1032.41 1032.41 1032.32 1032.39 1032.05 1031.98 1031.66 1031.73 1031.37 1031.34 1030.73 1030.22 1029.99 1029.84 1029.52 1028.91 1028.43 1027.84
1027.55 1027.54 1027.45 1027.44 1027.55 1027.59 1027.91 1028.83 1028.96 1028.96 1029.41 1029.83 1030.86 1030.32 1029.53 1028.89 1028.69 1028.99 1029.30 1029.76 1030.46 1031.16 1032.13 1032.93 1032.69 1032.33 1032.58 1033.22 1032.87 1032.30 1031.64 1031.32 1031.21 1031.07 1030.57 1030.41 1030.05 1029.89 1029.77 1029.72 1029.67 1029.48 1028.86 1028.58
1027.85 1027.91 1027.75 1027.72 1027.83 1028.26 1028.96 1029.44 1029.49 1029.03 1029.34 1030.19 1031.51 1031.14 1030.12 1029.83 1029.76 1030.10 1030.39 1030.61 1031.30 1031.61 1032.44 1033.16 1032.92 1032.52 1032.27 1032.94 1032.60 1031.82 1031.17 1030.68 1030.48 1030.28 1030.19 1030.02 1029.82 1029.68 1029.41 1029.36 1029.43 1029.63 1029.47 1029.06
1028.10 1028.20 1028.22 1028.29 1028.38 1028.89 1029.32 1029.68 1029.26 1029.22 1029.99 1030.66 1031.96 1032.01 1031.23 1030.63 1031.08 1031.50 1031.42 1031.70 1031.77 1032.37 1032.92 1033.15 1033.06 1032.73 1032.76 1032.68 1031.86 1031.10 1030.65 1030.44 1030.15 1029.89 1029.71 1029.70 1029.61 1029.46 1029.37 1029.31 1029.23 1029.22 1029.40 1029.48
1028.35 1028.51 1028.57 1028.88 1029.18 1030.01 1030.15 1029.65 1029.55 1029.67 1030.56 1031.56 1032.07 1032.51 1032.13 1031.48 1031.95 1032.14 1032.16 1032.20 1032.83 1032.73 1033.03 1033.17 1033.06 1033.01 1032.43 1031.65 1031.18 1030.62 1030.22 1030.04 1029.95 1029.93 1029.83 1029.78 1029.77 1029.81 1029.62 1029.44 1029.36 1029.45 1029.51 1029.51
1028.74 1029.09 1029.45 1030.10 1030.43 1029.97 1029.89 1030.10 1030.26 1030.78 1031.62 1031.54 1032.13 1032.47 1032.45 1032.42 1032.55 1033.06 1033.34 1033.07 1033.67 1033.28 1033.52 1033.02 1032.91 1032.36 1031.45 1030.76 1030.39 1030.09 1029.89 1029.66 1029.63 1029.63 1029.66 1029.69 1029.74 1029.73 1029.74 1029.78 1029.62 1029.43 1029.49 1029.67
1029.31 1030.02 1030.62 1030.57 1030.13 1030.44 1031.25 1031.92 1032.08 1032.48 1032.44 1032.15 1032.10 1031.93 1032.15 1032.37 1032.72 1033.38 1033.66 1033.69 1033.60 1033.77 1033.39 1033.21 1033.19 1032.28 1030.93 1030.14 1029.99 1029.74 1029.60 1029.48 1029.29 1029.20 1029.25 1029.29 1029.38 1029.50 1029.66 1029.62 1029.50 1029.46 1029.60 1029.73
1029.21 1029.57 1030.28 1030.62 1031.20 1031.67 1032.21 1032.90 1032.68 1032.50 1031.92 1031.84 1031.86 1031.84 1031.73 1032.25 1032.22 1032.81 1033.56 1033.55 1033.55 1033.36 1033.20 1033.28 1033.00 1031.32 1030.09 1029.85 1029.65 1029.46 1029.40 1029.32 1029.26 1029.17 1029.12 1029.19 1029.28 1029.38 1029.49 1029.57 1029.57 1029.56 1029.57 1029.76
1029.27 1029.76 1030.81 1031.26 1032.18 1032.34 1032.38 1032.28 1032.07 1031.71 1031.29 1031.32 1031.49 1031.92 1031.83 1032.19 1032.27 1032.93 1033.22 1033.29 1033.43 1033.24 1033.12 1032.97 1031.71 1030.25 1029.60 1029.37 1029.30 1029.29 1029.24 1029.24 1029.24 1029.18 1029.15 1029.15 1029.29 1029.28 1029.40 1029.63 1029.59 1029.53 1029.68 1029.79
1029.60 1030.21 1031.14 1031.28 1031.81 1031.18 1030.60 1030.54 1030.35 1030.05 1030.15 1030.61 1030.90 1031.79 1031.76 1032.07 1032.29 1032.62 1033.03 1032.97 1033.03 1033.20 1033.26 1031.91 1030.43 1029.38 1028.97 1028.93 1028.99 1029.13 1029.08 1029.04 1029.06 1029.11 1029.18 1029.30 1029.41 1029.40 1029.40 1029.51 1029.59 1029.71 1029.84 1029.96
1029.68 1030.13 1030.33 1030.41 1029.97 1029.93 1029.93 1029.89 1029.98 1029.91 1029.91 1030.36 1030.93 1031.44 1031.68 1032.09 1032.34 1032.49 1032.63 1032.75 1032.56 1032.16 1031.37 1030.29 1029.01 1028.59 1028.55 1028.67 1028.81 1028.87 1028.95 1028.92 1028.98 1029.02 1029.05 1029.15 1029.30 1029.41 1029.49 1029.45 1029.49 1029.58 1029.84 1030.14
1029.51 1029.80 1029.80 1029.77 1029.81 1029.76 1029.81 1029.69 1029.75 1029.71 1029.87 1030.13 1030.58 1031.34 1031.80 1031.86 1031.87 1032.24 1032.15 1031.94 1031.27 1030.26 1029.79 1028.89 1028.60 1028.31 1028.13 1028.15 1028.18 1028.29 1028.38 1028.62 1028.77 1028.91 1028.91 1028.97 1029.09 1029.13 1029.16 1029.23 1029.44 1029.61 1029.88 1030.19
1029.30 1029.22 1029.07 1029.24 1029.19 1029.05 1029.07 1029.12 1029.20 1029.26 1029.81 1029.96 1030.35 1031.09 1031.12 1031.49 1031.40 1031.31 1030.96 1030.16 1029.30 1028.85 1028.70 1028.35 1028.19 1027.88 1027.68 1027.69 1027.89 1028.06 1028.24 1028.46 1028.61 1028.73 1028.71 1028.75 1028.73 1028.87 1029.06 1029.19 1029.25 1029.52 1029.77 1030.00
Wind_Speed
15 15 15 11 5 3 10 4 5 7 5 7 3 3 3 6 6 4 4 2 3 3 4 4 3 4 5 8 5 7 2 5 9 12 14 4 3 5 11 4 4 2 2 4
15 16 15 11 5 5 5 4 1 5 6 5 3 3 4 3 5 5 5 3 2 1 3 5 5 6 4 8 9 7 8 5 9 7 7 14 9 5 3 2 3 2 4 0
16 16 14 10 7 7 7 5 4 6 6 1 4 2 4 6 5 3 4 4 3 6 2 5 6 6 7 10 7 11 7 4 9 12 10 9 9 30 23 9 5 3 6 12
16 16 13 9 8 6 7 4 0 3 3 5 4 3 4 5 6 3 7 4 3 3 4 3 6 4 7 6 6 4 3 3 5 12 17 31 25 27 28 27 15 9 9 13
16 16 14 11 8 8 7 6 5 4 2 3 5 8 5 3 6 2 6 4 13 1 2 2 5 7 6 7 7 4 2 3 1 5 14 14 27 24 24 27 25 13 10 11
16 18 18 16 9 8 4 0 3 6 5 3 2 3 4 4 6 6 6 6 3 4 3 6 8 6 2 4 9 4 3 3 3 3 9 7 24 20 12 19 17 16 16 17
16 17 17 18 17 11 5 2 5 6 3 3 3 4 3 4 5 4 7 3 2 6 7 3 2 1 2 6 13 5 3 2 3 3 5 12 8 14 6 8 18 20 19 19
16 16 15 16 17 15 6 2 5 5 3 1 4 9 5 5 5 3 4 4 4 9 3 3 5 5 6 4 9 18 11 3 5 5 7 4 16 19 13 6 16 22 19 21
14 15 15 15 13 11 6 4 3 5 6 6 3 4 4 4 5 7 4 6 6 6 4 4 5 6 5 8 17 11 15 16 6 5 8 12 16 23 22 3 11 25 22 21
14 14 14 14 12 13 6 3 3 5 6 3 2 4 4 3 4 4 5 8 10 6 4 5 6 4 5 7 7 9 9 6 12 10 7 6 13 24 11 14 9 20 19 18
13 14 14 14 13 11 6 1 5 5 4 2 1 3 3 5 3 3 6 4 6 6 7 4 2 5 3 4 6 7 8 5 6 6 7 9 16 10 12 4 7 11 13 14
11 12 13 12 11 9 6 5 3 2 6 4 1 3 3 3 2 3 6 4 1 3 5 3 3 4 5 6 5 10 9 10 6 7 5 3 8 6 6 3 6 11 12 14
11 11 12 12 11 14 8 4 3 4 5 6 7 6 7 5 3 2 5 4 1 4 2 4 2 7 2 3 4 4 8 7 4 5 6 4 5 6 6 6 8 10 11 13
10 10 11 13 13 13 8 5 3 4 3 6 6 3 6 9 7 8 3 5 4 4 4 4 4 4 4 3 2 3 3 3 3 3 5 4 6 5 5 7 7 10 12 13
9 9 9 9 14 16 9 4 3 2 5 5 3 5 5 5 6 10 10 8 6 4 5 5 3 2 4 3 2 5 3 1 3 3 5 4 6 5 4 5 6 8 8 13
7 8 8 5 5 4 4 6 4 4 2 6 3 4 6 7 8 10 8 5 4 4 4 1 1 1 4 3 3 4 3 2 5 2 3 3 5 3 3 2 3 5 7 7
6 7 10 6 6 4 5 6 4 5 2 5 3 3 5 4 4 3 4 4 3 3 2 4 2 4 5 3 1 5 5 4 3 2 3 5 5 4 7 4 4 3 2 5
5 5 9 12 14 8 5 4 6 2 5 4 4 2 4 5 3 3 3 3 3 5 2 1 2 3 2 3 3 5 1 3 4 5 3 2 4 5 7 5 5 7 7 5
5 6 5 4 6 4 3 5 5 3 5 4 3 5 4 4 2 1 4 3 4 2 2 1 2 1 1 4 3 1 1 3 4 2 2 4 2 4 6 5 7 5 6 6
6 5 5 5 3 4 5 8 6 7 5 4 3 1 0 3 2 2 2 3 0 2 3 1 4 3 3 5 6 4 4 4 5 2 3 3 2 2 4 4 3 3 3 4
4 3 2 3 4 4 4 3 4 3 4 0 2 3 4 1 3 2 1 2 1 3 4 3 2 3 4 6 7 6 5 5 4 2 1 3 3 2 4 5 5 3 1 3
5 4 3 3 5 4 5 2 3 1 4 2 4 4 3 1 2 4 1 2 2 2 1 4 3 5 4 5 7 7 6 5 4 1 0 3 4 4 3 3 4 4 0 1
3 4 4 4 3 4 5 5 3 2 4 4 3 1 2 2 3 3 3 2 4 1 4 4 6 4 3 6 4 5 5 5 3 3 1 0 2 3 2 4 3 3 2 1
3 4 1 5 2 5 5 4 3 4 4 5 3 3 3 1 3 2 3 2 2 3 1 6 4 6 6 6 4 4 6 7 6 5 4 3 2 4 3 3 3 1 3 0
3 3 4 5 3 2 2 2 2 1 4 4 3 3 3 1 4 1 2 3 3 5 6 5 5 5 5 6 6 7 6 6 5 4 4 5 4 3 3 3 3 0 2 3
3 2 1 1 1 2 1 2 2 3 4 3 3 3 3 2 3 3 6 4 7 5 5 4 2 3 5 6 6 7 7 6 6 4 5 5 5 4 4 1 0 2 4 4
3 3 1 2 1 3 2 3 3 4 3 3 4 4 6 2 2 4 5 6 5 5 4 3 4 6 7 7 6 6 6 6 6 4 6 5 3 3 2 4 4 5 4 4
Wind_Direction
358 358 348 351 351 127 56 83 49 304 8 55 31 55 9 343 355 1 3 327 264 258 298 288 283 265 227 342 291 321 307 287 288 302 306 336 5 157 208 126 195 104 68 120
1 358 346 353 47 128 113 83 250 326 58 80 1 1 344 47 352 318 4 313 242 244 271 302 276 315 298 16 349 2 351 315 315 350 78 38 47 345 277 122 70 94 148 164
6 357 349 4 106 113 86 83 36 341 37 37 90 21 3 352 339 314 348 270 294 315 256 225 291 288 305 332 319 338 355 326 38 66 46 78 57 50 47 45 43 49 41 321
4 2 4 29 126 104 90 42 201 175 349 1 30 54 12 350 348 353 3 337 296 272 305 324 319 290 297 322 326 340 42 55 147 111 59 60 56 45 42 44 26 37 347 335
7 10 21 41 96 88 79 115 123 30 17 359 18 11 8 320 317 284 312 328 317 296 251 19 307 337 339 26 328 328 301 291 299 12 360 37 50 35 39 34 25 17 359 356
19 15 23 31 57 86 98 153 47 99 336 353 58 346 295 293 324 262 236 278 291 295 251 285 253 231 220 302 338 313 308 332 320 341 343 335 34 6 31 34 24 10 13 330
28 24 23 33 42 72 110 141 101 85 24 62 18 310 287 281 290 252 287 297 138 253 326 228 118 226 298 271 356 360 280 333 44 311 349 51 322 2 353 43 15 5 358 347
31 27 31 44 50 63 82 102 95 105 68 18 337 338 324 299 294 261 265 300 256 311 356 56 27 349 10 327 335 13 28 70 52 78 45 161 16 352 336 342 19 358 355 352
37 32 34 41 56 82 84 59 89 93 112 352 280 329 328 340 314 325 280 312 314 30 52 55 44 32 333 348 342 358 17 39 78 10 74 31 342 339 320 244 11 345 352 357
43 35 38 43 48 64 92 70 38 85 102 313 60 15 294 313 300 251 309 337 350 25 27 43 53 30 331 11 5 333 353 357 38 34 76 78 336 344 342 56 322 328 344 348
47 38 34 38 40 52 75 103 15 99 107 338 3 330 325 330 38 23 294 30 358 14 46 62 335 44 356 48 18 344 6 8 12 16 59 37 345 350 47 259 299 341 347 351
50 43 36 38 46 52 76 57 354 31 86 205 289 282 305 321 282 172 357 145 332 200 83 40 74 24 24 360 22 355 45 46 54 50 89 270 312 5 345 302 315 352 359 3
55 45 35 40 58 64 88 104 347 46 56 13 34 354 324 10 351 207 90 352 337 32 169 147 153 73 111 51 1 7 16 33 61 71 347 323 328 347 358 344 358 349 3 7
58 51 40 49 60 67 80 77 331 75 111 94 305 341 17 321 9 45 67 135 62 85 45 67 78 84 34 12 215 79 232 359 12 51 6 340 355 3 341 355 351 359 2 11
60 52 51 76 71 74 72 85 42 100 124 156 264 316 345 357 39 45 38 52 54 32 32 41 35 56 65 338 40 9 339 317 88 214 264 196 266 314 354 15 4 354 356 360
62 50 47 71 89 57 55 33 354 22 66 89 51 284 340 348 29 37 27 36 65 76 103 179 49 290 99 70 17 296 312 255 185 254 278 231 284 302 338 17 359 14 6 356
68 52 54 87 85 67 98 171 236 348 61 80 37 354 334 338 26 26 23 25 48 84 79 49 17 9 59 85 97 281 330 332 349 282 336 359 6 312 326 353 23 37 65 2
76 60 84 72 85 96 25 335 3 80 86 66 103 277 14 9 16 354 1 12 28 10 131 44 72 352 41 57 261 273 149 119 34 2 9 262 283 1 351 357 358 13 23 34
93 87 56 46 36 50 270 325 25 43 111 124 92 132 229 355 1 291 1 37 30 285 80 28 85 313 89 212 203 190 196 169 183 185 72 11 17 352 354 355 359 9 355 18
84 46 49 7 292 261 14 4 22 14 344 38 104 123 198 80 9 0 27 18 46 41 271 338 66 258 256 223 209 200 193 184 177 103 319 318 335 321 330 341 323 329 357 7
47 69 124 232 330 51 36 25 78 314 15 279 169 172 138 296 107 191 99 206 294 63 279 94 324 292 238 203 210 216 220 222 225 216 239 276 274 318 335 338 343 334 327 6
170 138 98 45 40 37 78 293 317 192 222 201 147 199 158 154 116 99 313 119 40 228 295 69 301 252 234 194 217 223 214 225 250 307 130 30 21 349 324 316 334 330 216 337
52 53 63 64 309 45 160 210 251 247 176 189 161 113 127 65 60 70 90 86 233 99 43 229 225 247 240 212 217 223 219 219 264 269 203 251 342 351 26 344 341 339 206 270
99 127 231 169 231 243 199 195 195 223 138 146 122 96 121 150 75 144 110 213 78 30 236 233 240 222 220 203 199 173 210 204 216 228 237 264 304 310 343 350 321 261 234 286
123 119 210 212 236 245 228 210 314 229 133 121 87 59 94 20 98 299 108 45 252 217 228 233 224 208 189 187 191 204 210 199 216 218 221 245 255 266 298 326 328 101 140 127
116 208 208 213 124 280 256 179 246 172 141 93 63 111 74 217 146 150 208 181 221 239 217 227 222 208 201 206 203 208 199 200 224 223 222 234 236 235 244 168 238 186 153 163
184 240 198 197 242 199 204 169 203 138 119 167 126 149 202 99 134 224 188 212 216 212 239 231 224 213 206 205 210 212 213 231 237 230 227 231 232 219 231 245 222 201 198 208